Location: Beadle
(51.4667°N, 109.0000°W)
Time: 06:04:11
(UTC+00:00)

Envisat - Pass Details

Date: 24 January 2022
Orbit: 764 x 765 km, 98.2° (Epoch: 25 May)

Event Time Altitude Azimuth Distance (km) Brightness Sun altitude
Rises 13:49:51 0° 6° (N) 3,245 6.1 -11.6°
Reaches altitude 10° 13:52:36 10° 351° (N) 2,314 5.2 -11.2°
Maximum altitude 13:56:26 22° 303° (WNW) 1,632 4.1 -10.6°
Drops below altitude 10° 14:00:15 10° 254° (WSW) 2,304 5.0 -10.0°
Sets 14:02:59 0° 239° (WSW) 3,226 5.8 -9.6°
